This demonstration page uses our WeatherBlox Daily Observations layout. Learn more.

Hourly Observations for December 10, 2019

Temp ( °F °C ) Dew Point ( °F °C ) Humidity (%) Winds ( mph kmh ) Pressure ( in mb ) Visibility ( mi km ) Precip ( " mm )
12:54 am 00:54 Clear 14 -10 9 -12.8 80 80 S 3 6 30.16 1021 10 16.0934 0 0
1:54 am 01:54 Cloudy 20 -6.7 12 -11.1 71 71 WSW 6 9 30.17 1022 10 16.0934 0 0
2:54 am 02:54 Cloudy 23 -5 15 -9.4 72 72 Calm 30.18 1022 10 16.0934 0 0
3:54 am 03:54 Mostly Cloudy 23 -5 16 -8.9 74 74 Calm 30.2 1023 10 16.0934 0 0
4:54 am 04:54 Mostly Clear 20 -6.7 15 -9.4 81 81 WSW 3 6 30.22 1023 10 16.0934 0 0
5:54 am 05:54 Clear 23 -5 16 -8.9 74 74 NNW 10 17 30.24 1024 10 16.0934 0 0
6:54 am 06:54 Clear 22 -5.6 15 -9.4 75 75 NNW 12 19 30.29 1026 10 16.0934 0 0
7:54 am 07:54 Sunny 20 -6.7 11 -11.7 68 68 NNW 8 13 30.33 1027 10 16.0934 0 0
8:54 am 08:54 Cloudy 22 -5.6 12 -11.1 66 66 WNW 8 13 30.37 1028 10 16.0934 0 0
9:54 am 09:54 Cloudy 23 -5 14 -10 68 68 WNW 8 13 30.4 1030 10 16.0934 0 0
10:36 am 10:36 Mostly Cloudy 24 -4.4 12 -11.1 60 60 NW 15 24 30.44 1031 10 16.0934 0 0
10:46 am 10:46 Partly Cloudy 24 -4.4 13 -10.6 62 62 NW 14 22 30.43 1031 10 16.0934 0 0
10:54 am 10:54 Mostly Sunny 23 -5 13 -10.6 65 65 NW 10 17 30.42 1030 10 16.0934 0 0
11:39 am 11:39 Mostly Cloudy 24 -4.4 12 -11.1 60 60 NW 13 20 30.44 1031 10 16.0934 0 0
11:54 am 11:54 Mostly Cloudy 26 -3.3 14 -10 60 60 NNW 13 20 30.42 1030 10 16.0934 0 0
12:23 pm 12:23 Partly Cloudy 25 -3.9 11 -11.7 55 55 WNW 9 15 30.44 1031 10 16.0934 0 0
12:54 pm 12:54 Mostly Sunny 25 -3.9 10 -12.2 53 53 WNW 14 22 30.41 1030 10 16.0934 0 0
1:54 pm 13:54 Sunny 24 -4.4 7 -13.9 48 48 NW 12 19 30.4 1029 10 16.0934 0 0
2:54 pm 14:54 Sunny 25 -3.9 7 -13.9 46 46 WNW 7 11 30.39 1029 10 16.0934 0 0
3:54 pm 15:54 Sunny 24 -4.4 7 -13.9 48 48 NW 8 13 30.4 1030 10 16.0934 0 0
4:54 pm 16:54 Sunny 22 -5.6 7 -13.9 52 52 WNW 5 7 30.4 1030 10 16.0934 0 0
5:54 pm 17:54 Clear 20 -6.7 7 -13.9 57 57 Calm 30.4 1030 10 16.0934 0 0
6:54 pm 18:54 Clear 17 -8.3 9 -12.8 70 70 S 6 9 30.39 1029 10 16.0934 0 0
7:54 pm 19:54 Clear 17 -8.3 7 -13.9 64 64 S 8 13 30.39 1029 10 16.0934 0 0
8:54 pm 20:54 Clear 15 -9.4 8 -13.3 74 74 S 8 13 30.37 1029 10 16.0934 0 0
9:54 pm 21:54 Clear 18 -7.8 10 -12.2 71 71 S 9 15 30.35 1028 10 16.0934 0 0
10:54 pm 22:54 Clear 24 -4.4 12 -11.1 60 60 SSW 16 26 30.32 1027 10 16.0934 0 0
11:54 pm 23:54 Cloudy 26 -3.3 12 -11.1 55 55 SSW 17 28 30.31 1026 10 16.0934 0 0

Powered by AerisWeather